Location: Sek?ru
(16.2703°N, 80.5875°E)
Time: 21:36:41
(UTC+00:00)

Daily predictions for brighter satellites

Satellite Brightness Start Highest point End
(mag) Time Altitude Azimuth Time Altitude Azimuth Time Altitude Azimuth
ATLAS 5 CENTAUR R/B 3.7 12:19:37 10° NNE 12:24:19 21° ENE 12:29:16 10° ESE
Envisat 3.6 12:21:12 10° SE 12:25:42 33° ENE 12:30:11 10° NNE
SeaSat 1 3.7 12:27:12 10° ESE 12:30:33 19° ENE 12:33:54 10° NNE
Okean-O 2.7 12:28:40 10° SSE 12:32:57 52° ENE 12:37:16 10° N
COSMOS 2455 4.4 12:39:43 10° SE 12:42:51 15° ESE 12:44:56 12° E
Centaur AC-64 3.3 12:41:49 10° SSW 12:43:57 28° SE 12:47:27 13° E
ADEOS Rocket 4.5 12:45:18 12° E 12:45:52 12° E 12:47:48 10° ESE
ISS -2.0 12:44:05 10° S 12:46:26 18° SE 12:47:43 15° E
DELTA 2 R/B (1) 4.3 12:43:06 10° WSW 12:48:29 47° NW 12:53:49 10° NE
SKYMED 2 4.4 12:44:26 10° N 12:48:38 53° WNW 12:52:51 10° SSW
GENESIS II 4.1 12:49:46 10° SSW 12:53:39 79° ESE 12:57:34 11° NNE
Cosmos 1805 Rocket 4.5 12:53:23 10° NNW 12:57:37 51° W 13:01:53 10° S
Cosmos 1862 3.3 12:54:06 10° N 12:58:00 54° E 13:01:54 10° SSE
Cosmos 2228 Rocket 3.6 12:54:58 10° SSE 12:59:03 37° E 13:02:56 11° NNE
Cosmos 1633 2.4 12:55:35 10° N 12:59:11 80° E 13:02:47 10° S
Ariane H10-3 4.2 13:02:19 10° SSW 13:03:34 13° SSE 13:05:11 10° SE
CSL-04 Rocket 4.1 12:58:36 10° SE 13:03:36 38° ENE 13:08:31 10° N
NATO 3D Rocket 4.3 13:00:21 10° WNW 13:05:49 54° N 13:10:26 23° ENE
SL-16 R/B 2.7 13:02:31 10° S 13:07:42 38° ESE 13:10:40 22° NE
Cosmos 2360 Rocket 4.2 13:05:53 10° ESE 13:05:54 10° ESE 13:05:54 10° ESE
Cosmos 1464 Rocket 4.0 13:03:12 10° N 13:09:19 87° W 13:15:27 10° S
Cosmos 1891 Rocket 4.5 13:03:08 10° N 13:09:23 87° W 13:15:30 10° S
YAOGAN 6 2.3 13:06:02 10° SSE 13:09:33 81° E 13:13:02 10° N
Cosmos 1980 Rocket 3.6 13:07:57 10° SW 13:13:08 38° WNW 13:18:21 10° N
Cosmos 2219 4.1 13:09:40 10° NNW 13:15:04 50° WSW 13:20:29 10° S
GPS 2-15 Rocket1 3.4 13:11:34 10° WNW 13:16:21 58° N 13:18:11 35° ENE
Cosmos 1606 2.5 13:13:02 10° S 13:16:49 78° E 13:19:28 19° N
Cosmos 2322 Rocket 2.6 13:12:07 10° S 13:17:18 39° ESE 13:19:08 31° ENE
Cosmos 1607 3.8 13:14:18 10° NNW 13:20:34 76° ENE 13:26:53 10° SSE
Cosmos 2084 3.8 13:18:54 10° NW 13:23:01 61° WSW 13:27:05 10° SSE
Cosmos 1400 Rocket 2.9 13:20:56 10° S 13:24:51 52° E 13:25:05 51° E
Cosmos 1633 Rocket 3.5 13:22:09 10° NNW 13:26:30 62° W 13:30:51 10° S
Cosmos 2297 Rocket 2.8 13:27:54 10° NNW 13:33:25 56° WSW 13:38:55 10° S
Cosmos 2227 Rocket 2.6 13:27:55 10° NNW 13:33:29 62° WSW 13:39:01 10° S
Aurora 2 Rocket 3.0 13:33:05 10° W 13:37:15 58° NNW 13:38:16 48° NNE
DNEPR-1 R/B 4.4 13:30:30 10° NNW 13:37:22 57° ENE 13:39:32 37° ESE
ASTRO E2 4.1 13:35:52 10° SSW 13:38:39 27° SSE 13:38:39 27° SSE
CZ-4 R/B 2.6 13:35:49 10° S 13:39:50 44° W 13:43:50 10° NNW
Palapa 6 Rocket 3.3 13:38:27 10° SW 13:42:05 50° S 13:42:05 50° S
Centaur D-1AR AC-41 3.2 13:44:14 10° WNW 13:47:32 44° NNW 13:47:32 44° NNW
YAOGAN 1 3.4 13:43:58 10° S 13:48:09 51° W 13:52:20 10° NNW
Hubble Space Telescope 2.2 13:49:24 10° W 13:52:27 32° NW 13:52:27 32° NW
Delta 198 4.4 13:47:30 10° WNW 13:53:26 52° N 13:53:26 52° N
Cosmos 2082 4.2 13:56:31 10° NNW 14:02:00 57° WSW 14:07:30 10° S
SeaSat 1 4.1 14:03:24 10° S 14:07:46 32° WSW 14:12:08 10° NW
ATLAS 5 CENTAUR R/B 3.4 14:02:40 10° NW 14:09:04 51° WSW 14:15:55 10° S
CZ-3C R/B 3.2 14:07:18 10° WNW 14:08:36 17° W 14:08:36 17° W
Atlas Centaur 2 4.0 14:16:46 10° SSW 14:21:55 28° S 14:21:55 28° S
COSMOS 2455 3.6 14:22:34 10° SW 14:28:10 48° WNW 14:28:10 48° WNW
ADEOS Rocket 3.7 14:32:15 46° W 14:32:15 46° W 14:36:51 10° SSW
ATLAS 2AS CENTAUR R/B 3.2 14:25:14 10° SSW 14:31:03 58° S 14:31:03 58° S
Cosmos 2360 Rocket 4.2 14:45:52 10° SSW 14:47:44 21° SW 14:47:44 21° SW
CZ-3C R/B 3.7 14:51:45 10° W 15:40:26 11° E 23:20:06 10° ESE
ATLAS 5 CENTAUR R/B 4.4 15:56:43 10° WNW 16:45:19 26° ESE 17:22:54 10° ESE
CZ-3B R/B 3.8 21:45:09 29° ENE 21:45:09 29° ENE 21:47:29 10° ENE
FALCON 9 R/B 4.4 21:50:54 20° SE 21:51:54 21° ESE 21:58:50 10° ENE
Lacrosse 4 Rocket 4.1 22:13:52 16° SE 22:13:52 16° SE 22:14:57 10° SE
Cosmos 1605 Rocket 4.5 22:09:40 10° S 22:22:24 - NNE 22:15:13 56° ESE
ATLAS CENTAUR R/B 3.9 22:15:49 10° SSE 22:19:44 25° ESE 22:23:41 10° NE
Milstar 3 3.3 22:19:57 66° NNW 22:20:53 70° NNE 22:27:58 10° ESE
CZ-2C R/B 3.9 22:24:15 29° SE 22:24:15 29° SE 22:26:55 10° SSE
GOES 2 Rocket 4.1 22:33:29 73° N 22:33:49 75° NNE 22:42:09 10° ESE
ISS -0.7 22:39:25 13° ENE 22:39:25 13° ENE 22:40:24 10° E
Centaur D AC-29 2.3 22:37:21 62° W 22:38:40 81° SSW 22:42:46 10° ESE
Cosmos 1538 Rocket 4.0 22:42:07 77° SE 22:42:07 77° SE 22:47:07 10° SSE
Cosmos 1937 Rocket 3.8 22:38:26 10° S 22:44:41 55° NNE 22:48:43 10° NNE
Cosmos 1842 Rocket 4.3 22:45:48 47° SE 22:45:48 47° SE 22:49:00 10° SSE
GPS 2-12 Rocket1 3.8 22:46:38 46° ENE 22:46:38 46° ENE 22:50:03 10° E
Ariane H10-3 4.2 22:54:37 12° S 22:55:27 13° SSE 22:57:53 10° SE
CZ-3B R/B 3.4 22:56:48 23° NNE 22:56:57 23° NNE 23:02:20 10° ENE
Cosmos 1697 Rocket 3.0 22:56:14 23° N 22:59:41 63° ENE 23:05:12 10° SSE
CZ-4B R/B 4.0 22:56:33 10° NNE 23:01:02 83° ESE 23:05:22 10° S
Cosmos 2278 4.5 22:58:54 12° N 23:03:59 51° ENE 23:09:30 10° SSE
Milstar 3 Cent rocket 3.2 23:02:06 37° W 23:06:17 66° SSW 23:12:15 10° SE
Cosmos 2058 4.1 23:03:28 10° SSW 23:05:46 31° SSW 23:05:46 31° SSW
Meteor 1-27 4.2 23:02:37 10° N 23:08:27 88° E 23:14:16 10° S
Cosmos 1892 3.4 23:05:03 10° S 23:08:45 51° E 23:12:25 10° NNE
In-Cosmos 22 Rocket 4.1 23:03:55 10° S 23:09:12 79° E 23:14:34 10° N
Meteor 2-2 Rocket 4.3 23:13:58 10° N 23:19:36 79° E 23:25:17 10° S
Meteor 1-31 Rocket 4.0 23:23:56 27° SW 23:23:56 27° SW 23:25:57 10° SSW
Cosmos 1656 4.2 23:24:10 32° W 23:24:41 32° WSW 23:29:31 10° SSW
Cosmos 2100 Rocket 3.9 23:18:48 10° S 23:25:03 90° NW 23:31:15 10° N
Okean O Rocket 3.7 23:21:34 10° NE 23:25:19 28° E 23:29:04 10° SSE
CZ-4B R/B 3.5 23:28:31 31° WSW 23:28:31 31° WSW 23:31:02 10° SSW
Cosmos 372 Rocket 4.1 23:23:04 10° S 23:28:15 77° ESE 23:33:24 10° NNE
Cosmos 1484 Rocket 2.8 23:24:34 10° NNE 23:28:35 83° ESE 23:32:33 10° S
Cosmos 1825 4.4 23:25:50 10° SSE 23:29:02 27° E 23:32:14 10° NNE
Atlas Centaur 2 1.4 23:29:27 34° NNW 23:30:36 51° NNE 23:34:11 10° ESE
Cosmos 2298 Rocket 3.9 23:29:50 10° SSW 23:35:07 75° WNW 23:40:25 10° N
Cosmos 1869 3.2 23:32:20 10° N 23:36:16 89° ENE 23:40:13 10° S
Cosmos 1356 Rocket 3.4 23:32:50 10° N 23:37:06 87° E 23:41:19 10° S
Cosmos 2112 Rocket 4.2 23:33:59 10° N 23:39:18 75° ENE 23:44:38 10° SSE
Cosmos 1802 Rocket 4.1 23:34:19 10° S 23:40:44 90° W 23:47:10 10° N
MOS 1-B 4.3 23:35:33 10° N 23:41:19 79° WNW 23:47:05 10° SSW
SEDSat Delta rocket 4.2 23:39:05 10° SW 23:42:54 38° SSE 23:47:00 10° ENE
CZ-3B R/B 2.2 23:40:33 20° W 23:44:26 38° NNW 23:48:12 10° NE
Cosmos 1447 Rocket 4.5 23:38:36 10° NNW 23:44:51 65° W 23:51:03 10° S
ASTRO E2 4.0 23:43:13 19° WSW 23:44:54 26° SSW 23:48:13 10° SSE
Cosmos 1680 Rocket 3.5 23:40:48 10° NNW 23:46:05 75° WSW 23:51:23 10° S
SJ-12 3.8 23:43:01 10° N 23:47:08 78° WNW 23:51:15 10° SSW
ASTEX 1 3.8 23:46:37 10° SSW 23:51:12 41° W 23:55:51 10° NNW
Cosmos 1408 Rocket 3.4 23:50:49 10° S 23:55:06 75° W 23:59:23 10° N
